Lid_Strength_Index
13 15 16 15 15 16 17 17 17 15 14 15 15 15 15 16 16 17 17 17 17 16 15 15 15 15 15 14 13 13 12 11 9 9 9 10 10 11 12 12 12 11 10 10
16 17 14 15 15 16 17 18 18 16 15 15 16 15 16 16 17 16 17 17 16 16 16 16 16 15 16 15 14 13 13 12 11 10 10 11 12 13 13 13 13 13 12 11
17 15 14 15 16 17 18 18 18 17 16 16 17 17 17 17 16 16 16 16 16 16 16 16 16 16 16 16 16 15 14 14 13 11 11 11 12 13 14 14 14 14 13 13
16 14 14 16 16 16 18 16 16 16 17 19 17 20 17 17 17 17 16 16 16 16 16 16 16 16 16 16 15 15 14 14 14 13 13 14 15 16 15 15 14 14 13 13
15 16 16 16 15 15 16 15 16 17 18 19 18 19 18 17 18 18 17 17 16 16 16 17 17 16 16 16 16 15 15 15 14 14 14 14 15 15 15 14 14 14 14 13
14 14 14 14 15 15 15 16 17 18 19 21 18 18 18 18 17 17 16 16 16 16 16 16 16 16 17 16 16 15 15 15 15 14 14 14 15 15 15 15 14 14 14 14
16 16 15 15 16 15 16 17 20 21 22 21 19 19 17 16 15 15 16 16 16 16 16 16 17 17 17 17 16 15 15 15 15 14 15 15 15 14 15 14 14 14 14 14
17 19 16 15 15 16 16 16 19 23 23 21 18 20 17 15 16 15 15 15 15 16 16 16 16 17 16 16 16 16 16 16 15 15 15 14 14 14 14 14 14 14 14 14
18 17 16 15 15 15 17 17 16 20 22 22 19 17 15 16 17 17 16 16 16 16 16 15 16 16 16 16 16 16 16 16 16 16 15 15 15 15 15 15 14 14 14 14
15 18 17 16 15 16 16 15 18 19 24 25 20 20 18 17 17 18 17 16 16 16 16 15 15 16 16 16 16 16 16 16 16 15 15 15 15 14 14 14 14 14 14 14
15 16 17 16 17 17 17 17 17 17 19 23 25 21 16 16 16 17 17 16 15 15 15 15 15 15 16 16 16 16 16 16 15 15 15 15 15 14 14 14 14 14 14 14
14 15 20 18 17 16 16 16 16 18 21 21 20 20 16 16 15 16 16 15 15 15 14 14 15 15 16 16 16 16 16 15 15 15 14 14 14 14 14 14 14 14 14 14
14 17 22 19 17 17 17 17 16 17 18 21 21 20 16 16 16 16 16 16 15 14 15 15 15 15 15 16 16 16 15 15 15 14 14 14 14 14 14 14 14 14 14 15
11 16 16 17 17 17 18 17 17 16 21 19 17 19 17 16 15 16 15 15 15 14 14 15 16 15 15 16 16 16 15 14 14 14 14 14 13 13 13 13 14 15 15 15
13 15 17 19 19 18 17 17 17 17 15 17 16 16 16 14 14 14 14 15 15 14 15 15 15 15 16 16 15 15 15 14 14 14 13 13 12 13 13 14 15 15 15 16
15 17 17 19 18 18 19 17 17 16 16 16 17 17 14 12 14 15 14 15 14 14 14 14 14 15 15 15 15 15 15 14 14 14 13 13 13 13 14 15 16 16 16 16
16 18 18 19 19 19 19 18 17 17 17 15 17 14 16 15 14 14 14 14 13 14 14 14 15 15 14 14 13 14 13 13 13 13 13 13 14 14 15 16 16 16 17 16
16 16 16 23 20 22 19 21 17 16 16 17 18 18 14 14 15 15 15 14 15 15 14 14 14 15 14 13 13 13 13 13 13 14 14 15 16 16 16 17 17 17 16 17
16 16 20 22 21 19 21 21 19 17 17 16 15 16 16 17 17 17 16 15 15 15 14 13 12 13 13 13 13 13 13 13 14 14 15 16 16 17 17 18 17 17 17 17
17 16 15 21 22 22 21 21 19 17 21 19 14 15 18 18 20 18 16 15 15 15 14 14 13 13 13 13 14 14 15 15 15 14 14 16 17 19 19 18 18 18 19 17
20 19 18 20 20 18 17 19 18 20 19 19 18 18 18 19 17 16 16 16 15 14 14 13 13 13 13 14 15 15 15 15 14 15 16 17 17 19 19 19 18 19 20 19
20 19 20 19 20 21 19 19 18 16 17 17 18 17 17 16 16 15 15 14 14 14 13 12 14 14 14 14 15 15 15 15 16 17 17 18 20 18 19 21 20 21 21 22
20 17 18 17 17 17 16 15 15 15 16 17 16 16 15 15 15 14 14 14 13 14 14 15 14 14 16 15 15 15 15 17 18 19 20 22 21 19 19 22 19 19 19 20
20 19 20 19 19 18 16 15 15 15 15 15 15 15 15 15 15 14 14 14 14 14 15 15 16 15 14 16 16 16 17 17 20 21 21 21 21 20 20 18 19 20 20 20
18 18 20 20 18 17 16 14 14 14 14 14 14 13 13 14 14 14 14 15 14 14 15 15 15 15 14 17 18 19 18 19 21 21 20 20 20 20 19 18 18 18 18 19
18 19 19 20 16 15 14 12 12 13 13 13 13 14 13 13 13 14 14 13 13 14 16 17 16 17 18 19 20 21 21 20 20 20 20 20 19 19 19 20 19 16 13 12